Flag for United Kingdom Weather past 2 weeks in Chesterfield, England, United Kingdom

Now
46 °F

Smoke.


Feels Like: 42 °F
Forecast: 44 / 63 °F
Wind: 7 mph from West

Location: Nottingham Weather Centre

Current Time: Sep 22, 2014 at 7:41:45 AM

Latest Report: Sep 22, 2014 at 7:00 AM


Visibility: 3 mi

Pressure: 30.32 "Hg

Humidity: 87%

Dew point: 42 °F

Location of ChesterfieldLocation

Historic Weather in Chesterfield — Graph

°F

Chesterfield temperature yesterday

Maximum temperature yesterday: 61 °F (at 1:00 PM)
Minimum temperature yesterday: 48 °F (at 11:00 PM)
Average temperature yesterday: 54 °F

Past Weeks' High & Low Weather Summary

 TemperatureHumidityPressure
High70 °F (Sep 10, 5:00 PM)100% (Sep 7, 6:00 AM)30.39 "Hg (Sep 7, 6:00 AM)
Low44 °F (Sep 22, 5:00 AM)47% (Sep 7, 4:00 PM)29.84 "Hg (Sep 18, 4:00 PM)
Average58 °F87%30.13 "Hg
* Reported Sep 7 6:00 AM — Sep 22 6:00 AM, Chesterfield, Weather by CustomWeather, © 2014

Note: Actual official high and low records may vary slightly from our data, if they occured in-between our weather recording intervals... More about our weather records

Advertising

Chesterfield weather history for previous 24 hours

 ConditionsComfort  
Time TempWeatherWind HumidityBarometerVisibility
6:00 AM
Sep 22
44 °FSmoke.5 mph90%30.33 "Hg3 mi
5:00 AM44 °FSmoke.2 mph91%30.34 "Hg3 mi
4:00 AM46 °FSmoke.5 mph88%30.34 "Hg3 mi
3:00 AM47 °FSmoke.5 mph90%30.34 "Hg3 mi
2:00 AM45 °FSmoke.1 mph90%30.36 "Hg3 mi
1:00 AM47 °FSmoke.5 mph90%30.37 "Hg4 mi
12:00 AM46 °FSmoke.2 mph90%30.36 "Hg4 mi
11:00 PM
Sep 21
48 °FSmoke.5 mph87%30.35 "Hg4 mi
10:00 PM49 °FSmoke.3 mph84%30.35 "Hg5 mi
9:00 PM52 °FSmoke.5 mph80%30.35 "Hg5 mi
8:00 PM53 °FSmoke.3 mph77%30.34 "Hg5 mi
7:00 PM56 °FCool.8 mph71%30.32 "Hg7 mi
6:00 PM58 °FCool.5 mph65%30.32 "Hg7 mi
5:00 PM59 °FRefreshingly cool.7 mph59%30.31 "Hg7 mi
4:00 PM60 °FRefreshingly cool.6 mph59%30.31 "Hg7 mi
3:00 PM60 °FRefreshingly cool.9 mph59%30.31 "Hg7 mi
2:00 PM59 °FRefreshingly cool.10 mph60%30.30 "Hg9 mi
1:00 PM61 °FRefreshingly cool.8 mph60%30.30 "Hg12 mi
12:00 PM58 °FCool.9 mph63%30.29 "Hg16 mi
11:00 AM59 °FCool.8 mph68%30.29 "Hg14 mi
10:00 AM56 °FCool.9 mph74%30.29 "Hg12 mi
9:00 AM54 °FCool.7 mph82%30.27 "Hg12 mi
8:00 AM51 °FCool.5 mph89%30.26 "Hg11 mi
7:00 AM49 °FCool.5 mph93%30.25 "Hg6 mi
Weather by CustomWeather, © 2014

See weather overviewHow to use our weather pages